Chillicothe, MO

4:21 AM CST on December 16, 2019 (GMT -0600)
Chillicothe

Weather History for KCDJ - November, 2019

Change the Weather History Date:

Friday, November 22, 2019

  Actual Average (KIRK) Record (KIRK)
Temperature  
Mean Temperature 31 °F -  
Max Temperature 35 °F 49 °F 71 °F (2010)
Min Temperature 27 °F 28 °F -1 °F (1937)
Degree Days  
Heating Degree Days 34    
Moisture  
Dew Point 26 °F    
Average Humidity 79    
Maximum Humidity 96    
Minimum Humidity 64    
Precipitation  
Precipitation 0.07 in - - ()
Sea Level Pressure  
Sea Level Pressure 30.22 in    
Wind  
Wind Speed 4 mph (North)    
Max Wind Speed 8 mph    
Max Gust Speed -    
Averages and records for this station are not official NWS values.
T = Trace of Precipitation, MM = Missing Value Source: NWS Daily Summary

Daily Weather History Graph

Daily Weather History Graph

Search for Another Location

Airport or City:

Astronomy

Nov. 22, 2019 Rise Set
Actual Time 7:06 AM CST 4:53 PM CST
Civil Twilight 6:37 AM CST 5:23 PM CST
Nautical Twilight 6:04 AM CST 5:56 PM CST
Astronomical Twilight 5:32 AM CST 6:28 PM CST
Moon 2:14 AM CST (11/22) 2:54 PM CST (11/22)
Length of Visible Light 10h 45m
Length of Day
9h 47m
Waning Crescent, 19% of the Moon is Illuminated
Nov 22
Waning Crescent
Nov 26
New
Dec 4
First Quarter
Dec 11
Full
Dec 18
Last Quarter

Hourly Weather History & Observations

Time (CST) Temp. Windchill Dew Point Humidity Pressure Visibility Wind Dir Wind Speed Gust Speed Precip Events Conditions
12:52 AM 35.1 °F 28.6 °F 28.9 °F 78% 30.24 in - North 8.1 mph - N/A   Unknown
1:52 AM 33.1 °F 28.7 °F 28.0 °F 82% 30.23 in - North 4.6 mph - N/A   Unknown
2:52 AM 32.0 °F - 27.0 °F 82% 30.25 in - Calm Calm - N/A   Unknown
3:52 AM 30.9 °F 25.2 °F 27.0 °F 85% 30.25 in - North 5.8 mph - N/A   Unknown
5:52 AM 27.0 °F - 25.0 °F 92% 30.26 in - Calm Calm - N/A   Unknown
6:52 AM 27.0 °F - 25.0 °F 92% 30.28 in - Calm Calm - N/A   Unknown
7:52 AM 27.0 °F 21.6 °F 24.1 °F 89% 30.27 in - North 4.6 mph - N/A   Unknown
8:52 AM 28.9 °F - 24.1 °F 82% 30.31 in - Calm Calm - N/A   Unknown
9:52 AM 30.0 °F 26.5 °F 24.1 °F 79% 30.32 in - North 3.5 mph - N/A   Unknown
10:52 AM 33.1 °F 30.0 °F 24.1 °F 70% 30.31 in - Variable 3.5 mph - N/A   Unknown
11:52 AM 32.0 °F 27.5 °F 24.1 °F 73% 30.25 in - Variable 4.6 mph - N/A   Unknown
12:52 PM 34.0 °F 28.0 °F 25.0 °F 70% 30.21 in - North 6.9 mph - N/A   Unknown
1:52 PM 34.0 °F 28.8 °F 25.0 °F 70% 30.21 in - NW 5.8 mph - N/A   Unknown
2:52 PM 35.1 °F 32.2 °F 24.1 °F 64% 30.23 in - WNW 3.5 mph - N/A   Unknown
3:52 PM 35.1 °F 32.2 °F 25.0 °F 67% 30.21 in - Variable 3.5 mph - N/A   Unknown
4:52 PM 35.1 °F 32.2 °F 26.1 °F 70% 30.19 in - Variable 3.5 mph - N/A   Unknown
5:52 PM 34.0 °F - 25.0 °F 70% 30.19 in - Calm Calm - N/A   Unknown
6:52 PM 34.0 °F 31.0 °F 26.1 °F 73% 30.18 in - NNE 3.5 mph - N/A   Unknown
7:52 PM 34.0 °F 29.8 °F 26.1 °F 73% 30.16 in - NNE 4.6 mph - N/A   Unknown
8:52 PM 33.1 °F 28.7 °F 27.0 °F 78% 30.16 in - NE 4.6 mph - 0.01 in   Unknown
9:52 PM 30.9 °F 26.2 °F 30.0 °F 96% 30.14 in - North 4.6 mph - 0.04 in   Unknown
10:52 PM 30.9 °F 27.5 °F 30.0 °F 96% 30.13 in - NNW 3.5 mph - 0.02 in   Unknown
11:52 PM 30.9 °F - 30.0 °F 96% 30.12 in - Calm Calm - N/A   Unknown